Time,TemperatureF,DewpointF,PressureIn,WindDirection,WindDirectionDegrees,WindSpeedMPH,WindSpeedGustMPH,Humidity,HourlyPrecipIn,Conditions,Clouds,dailyrainin,SolarRadiationWatts/m^2,SoftwareType,DateUTC
2013-09-05 00:22:00,50.0,43.0,-100.00,WNW,298,4.0,5.0,76,0.00,,,0.00,0.000000,,2013-09-05 06:22:00,
2013-09-05 00:32:00,50.0,43.0,-100.00,WNW,298,4.0,5.0,76,0.00,,,0.00,0.000000,,2013-09-05 06:32:00,
2013-09-05 00:42:00,50.0,43.0,-100.00,WNW,298,4.0,5.0,76,0.00,,,0.00,0.000000,,2013-09-05 06:42:00,
2013-09-05 00:52:00,50.0,43.0,-100.00,WNW,298,4.0,5.0,76,0.00,,,0.00,0.000000,,2013-09-05 06:52:00,
2013-09-05 01:23:00,49.0,42.0,-100.00,SE,126,3.0,5.0,78,0.00,,,0.00,0.000000,,2013-09-05 07:23:00,
2013-09-05 01:32:00,49.0,42.0,-100.00,SE,126,3.0,5.0,78,0.00,,,0.00,0.000000,,2013-09-05 07:32:00,
2013-09-05 01:42:00,49.0,42.0,-100.00,SE,126,3.0,5.0,78,0.00,,,0.00,0.000000,,2013-09-05 07:42:00,
2013-09-05 01:52:00,49.0,42.0,-100.00,SE,126,3.0,5.0,78,0.00,,,0.00,0.000000,,2013-09-05 07:52:00,
2013-09-05 02:22:00,46.0,42.0,-100.00,SE,129,2.0,4.0,87,0.00,,,0.00,0.000000,,2013-09-05 08:22:00,
2013-09-05 02:32:00,46.0,42.0,-100.00,SE,129,2.0,4.0,87,0.00,,,0.00,0.000000,,2013-09-05 08:32:00,
2013-09-05 02:42:00,46.0,42.0,-100.00,SE,129,2.0,4.0,87,0.00,,,0.00,0.000000,,2013-09-05 08:42:00,
2013-09-05 02:52:00,46.0,42.0,-100.00,SE,129,2.0,4.0,87,0.00,,,0.00,0.000000,,2013-09-05 08:52:00,
2013-09-05 03:22:00,46.0,43.0,-100.00,SSE,155,3.0,5.0,89,0.00,,,0.00,0.000000,,2013-09-05 09:22:00,
2013-09-05 03:33:00,46.0,43.0,-100.00,SSE,155,3.0,5.0,89,0.00,,,0.00,0.000000,,2013-09-05 09:33:00,
2013-09-05 03:53:00,46.0,43.0,-100.00,SSE,155,3.0,5.0,89,0.00,,,0.00,0.000000,,2013-09-05 09:53:00,
2013-09-05 04:23:00,45.0,43.0,-100.00,SSW,202,3.0,4.0,94,0.00,,,0.00,0.000000,,2013-09-05 10:23:00,
2013-09-05 04:32:00,45.0,43.0,-100.00,SSW,202,3.0,4.0,94,0.00,,,0.00,0.000000,,2013-09-05 10:32:00,
2013-09-05 04:53:00,45.0,43.0,-100.00,SSW,202,3.0,4.0,94,0.00,,,0.00,0.000000,,2013-09-05 10:53:00,
2013-09-05 05:22:00,44.0,42.0,-100.00,NW,307,4.0,5.0,91,0.00,,,0.00,0.000000,,2013-09-05 11:22:00,
2013-09-05 05:33:00,44.0,42.0,-100.00,NW,307,4.0,5.0,91,0.00,,,0.00,0.000000,,2013-09-05 11:33:00,
2013-09-05 05:52:00,44.0,42.0,-100.00,NW,307,4.0,5.0,91,0.00,,,0.00,0.000000,,2013-09-05 11:52:00,
2013-09-05 06:22:00,44.0,41.0,-100.00,WNW,301,3.0,5.0,90,0.00,,,0.00,0.000000,,2013-09-05 12:22:00,
2013-09-05 06:32:00,44.0,41.0,-100.00,WNW,301,3.0,5.0,90,0.00,,,0.00,0.000000,,2013-09-05 12:32:00,
2013-09-05 07:22:00,44.0,40.0,-100.00,WSW,237,4.0,5.0,87,0.00,,,0.00,3.000000,,2013-09-05 13:22:00,
2013-09-05 07:32:00,44.0,40.0,-100.00,WSW,237,4.0,5.0,87,0.00,,,0.00,3.000000,,2013-09-05 13:32:00,
2013-09-05 07:53:00,44.0,40.0,-100.00,WSW,237,4.0,5.0,87,0.00,,,0.00,3.000000,,2013-09-05 13:53:00,
2013-09-05 08:22:00,50.0,43.0,-100.00,SSW,198,0.0,5.0,78,0.00,,,0.00,137.000000,,2013-09-05 14:22:00,
2013-09-05 08:32:00,50.0,43.0,-100.00,SSW,198,0.0,5.0,78,0.00,,,0.00,137.000000,,2013-09-05 14:32:00,
2013-09-05 08:42:00,50.0,43.0,-100.00,SSW,198,0.0,5.0,78,0.00,,,0.00,137.000000,,2013-09-05 14:42:00,
2013-09-05 08:52:00,50.0,43.0,-100.00,SSW,198,0.0,5.0,78,0.00,,,0.00,137.000000,,2013-09-05 14:52:00,
2013-09-05 09:22:00,54.0,44.0,-100.00,NNE,33,3.0,5.0,69,0.00,,,0.00,348.000000,,2013-09-05 15:22:00,
2013-09-05 09:33:00,54.0,44.0,-100.00,NNE,33,3.0,5.0,69,0.00,,,0.00,348.000000,,2013-09-05 15:33:00,
2013-09-05 09:44:00,54.0,44.0,-100.00,NNE,33,3.0,5.0,69,0.00,,,0.00,348.000000,,2013-09-05 15:44:00,
2013-09-05 09:54:00,54.0,44.0,-100.00,NNE,33,3.0,5.0,69,0.00,,,0.00,348.000000,,2013-09-05 15:54:00,
2013-09-05 10:24:00,60.0,46.0,-100.00,ENE,63,3.0,6.0,60,0.00,,,0.00,566.000000,,2013-09-05 16:24:00,
2013-09-05 10:33:00,60.0,46.0,-100.00,ENE,63,3.0,6.0,60,0.00,,,0.00,566.000000,,2013-09-05 16:33:00,
2013-09-05 10:43:00,60.0,46.0,-100.00,ENE,63,3.0,6.0,60,0.00,,,0.00,566.000000,,2013-09-05 16:43:00,
2013-09-05 10:54:00,60.0,46.0,-100.00,ENE,63,3.0,6.0,60,0.00,,,0.00,566.000000,,2013-09-05 16:54:00,
2013-09-05 11:43:00,69.0,44.0,-100.00,ENE,78,4.0,8.0,41,0.00,,,0.00,763.000000,,2013-09-05 17:43:00,
2013-09-05 11:52:00,69.0,44.0,-100.00,ENE,78,4.0,8.0,41,0.00,,,0.00,763.000000,,2013-09-05 17:52:00,
2013-09-05 12:22:00,71.0,43.0,-100.00,South,188,4.0,11.0,37,0.00,,,0.00,934.000000,,2013-09-05 18:22:00,
2013-09-05 12:32:00,71.0,43.0,-100.00,South,188,4.0,11.0,37,0.00,,,0.00,934.000000,,2013-09-05 18:32:00,
2013-09-05 12:42:00,71.0,43.0,-100.00,South,188,4.0,11.0,37,0.00,,,0.00,934.000000,,2013-09-05 18:42:00,
2013-09-05 12:52:00,71.0,43.0,-100.00,South,188,4.0,11.0,37,0.00,,,0.00,934.000000,,2013-09-05 18:52:00,
2013-09-05 13:22:00,66.0,39.0,-100.00,SW,230,2.0,9.0,37,0.00,,,0.00,376.000000,,2013-09-05 19:22:00,
2013-09-05 13:32:00,66.0,39.0,-100.00,SW,230,2.0,9.0,37,0.00,,,0.00,376.000000,,2013-09-05 19:32:00,
2013-09-05 13:42:00,66.0,39.0,-100.00,SW,230,2.0,9.0,37,0.00,,,0.00,376.000000,,2013-09-05 19:42:00,
2013-09-05 13:52:00,66.0,39.0,-100.00,SW,230,2.0,9.0,37,0.00,,,0.00,376.000000,,2013-09-05 19:52:00,
2013-09-05 14:22:00,71.0,39.0,-100.00,WSW,251,4.0,8.0,31,0.00,,,0.00,419.000000,,2013-09-05 20:22:00,
2013-09-05 14:32:00,71.0,39.0,-100.00,WSW,251,4.0,8.0,31,0.00,,,0.00,419.000000,,2013-09-05 20:32:00,
2013-09-05 14:42:00,71.0,39.0,-100.00,WSW,251,4.0,8.0,31,0.00,,,0.00,419.000000,,2013-09-05 20:42:00,
2013-09-05 14:52:00,71.0,39.0,-100.00,WSW,251,4.0,8.0,31,0.00,,,0.00,419.000000,,2013-09-05 20:52:00,
2013-09-05 15:21:00,75.0,39.0,-100.00,WSW,237,8.0,15.0,27,0.00,,,0.00,1011.000000,,2013-09-05 21:21:00,
2013-09-05 15:34:00,75.0,39.0,-100.00,WSW,237,8.0,15.0,27,0.00,,,0.00,1011.000000,,2013-09-05 21:34:00,
2013-09-05 15:44:00,75.0,39.0,-100.00,WSW,237,8.0,15.0,27,0.00,,,0.00,1011.000000,,2013-09-05 21:44:00,
2013-09-05 15:54:00,75.0,39.0,-100.00,WSW,237,8.0,15.0,27,0.00,,,0.00,1011.000000,,2013-09-05 21:54:00,
2013-09-05 16:24:00,72.0,34.0,-100.00,WSW,244,7.0,13.0,25,0.00,,,0.00,743.000000,,2013-09-05 22:24:00,
2013-09-05 16:33:00,72.0,34.0,-100.00,WSW,244,7.0,13.0,25,0.00,,,0.00,743.000000,,2013-09-05 22:33:00,
2013-09-05 16:43:00,72.0,34.0,-100.00,WSW,244,7.0,13.0,25,0.00,,,0.00,743.000000,,2013-09-05 22:43:00,
2013-09-05 16:53:00,72.0,34.0,-100.00,WSW,244,7.0,13.0,25,0.00,,,0.00,743.000000,,2013-09-05 22:53:00,
2013-09-05 17:22:00,72.0,33.0,-100.00,SE,146,5.0,13.0,24,0.00,,,0.00,490.000000,,2013-09-05 23:22:00,
2013-09-05 17:34:00,72.0,33.0,-100.00,SE,146,5.0,13.0,24,0.00,,,0.00,490.000000,,2013-09-05 23:34:00,
2013-09-05 17:42:00,72.0,33.0,-100.00,SE,146,5.0,13.0,24,0.00,,,0.00,490.000000,,2013-09-05 23:42:00,
2013-09-05 17:53:00,72.0,33.0,-100.00,SE,146,5.0,13.0,24,0.00,,,0.00,490.000000,,2013-09-05 23:53:00,
2013-09-05 18:22:00,68.0,38.0,-100.00,East,93,3.0,13.0,33,0.00,,,0.00,123.000000,,2013-09-06 00:22:00,
2013-09-05 18:33:00,68.0,38.0,-100.00,East,93,3.0,13.0,33,0.00,,,0.00,123.000000,,2013-09-06 00:33:00,
2013-09-05 18:42:00,68.0,38.0,-100.00,East,93,3.0,13.0,33,0.00,,,0.00,123.000000,,2013-09-06 00:42:00,
2013-09-05 18:52:00,68.0,38.0,-100.00,East,93,3.0,13.0,33,0.00,,,0.00,123.000000,,2013-09-06 00:52:00,
2013-09-05 19:22:00,65.0,36.0,-100.00,WNW,285,3.0,6.0,34,0.00,,,0.00,53.000000,,2013-09-06 01:22:00,
2013-09-05 19:32:00,65.0,36.0,-100.00,WNW,285,3.0,6.0,34,0.00,,,0.00,53.000000,,2013-09-06 01:32:00,
2013-09-05 19:42:00,65.0,36.0,-100.00,WNW,285,3.0,6.0,34,0.00,,,0.00,53.000000,,2013-09-06 01:42:00,
2013-09-05 19:52:00,65.0,36.0,-100.00,WNW,285,3.0,6.0,34,0.00,,,0.00,53.000000,,2013-09-06 01:52:00,
2013-09-05 20:22:00,63.0,39.0,-100.00,WNW,295,4.0,10.0,41,0.00,,,0.00,9.000000,,2013-09-06 02:22:00,
2013-09-05 20:32:00,63.0,39.0,-100.00,WNW,295,4.0,10.0,41,0.00,,,0.00,9.000000,,2013-09-06 02:32:00,
2013-09-05 20:42:00,63.0,39.0,-100.00,WNW,295,4.0,10.0,41,0.00,,,0.00,9.000000,,2013-09-06 02:42:00,
2013-09-05 20:52:00,63.0,39.0,-100.00,WNW,295,4.0,10.0,41,0.00,,,0.00,9.000000,,2013-09-06 02:52:00,
2013-09-05 21:22:00,60.0,38.0,-100.00,SW,231,7.0,12.0,44,0.00,,,0.00,0.000000,,2013-09-06 03:22:00,
2013-09-05 21:34:00,60.0,38.0,-100.00,SW,231,7.0,12.0,44,0.00,,,0.00,0.000000,,2013-09-06 03:34:00,
2013-09-05 21:44:00,60.0,38.0,-100.00,SW,231,7.0,12.0,44,0.00,,,0.00,0.000000,,2013-09-06 03:44:00,
2013-09-05 21:55:00,60.0,38.0,-100.00,SW,231,7.0,12.0,44,0.00,,,0.00,0.000000,,2013-09-06 03:55:00,
2013-09-05 22:23:00,59.0,39.0,-100.00,SE,143,1.0,8.0,47,0.00,,,0.00,0.000000,,2013-09-06 04:23:00,
2013-09-05 22:34:00,59.0,39.0,-100.00,SE,143,1.0,8.0,47,0.00,,,0.00,0.000000,,2013-09-06 04:34:00,
2013-09-05 22:44:00,59.0,39.0,-100.00,SE,143,1.0,8.0,47,0.00,,,0.00,0.000000,,2013-09-06 04:44:00,
2013-09-05 22:54:00,59.0,39.0,-100.00,SE,143,1.0,8.0,47,0.00,,,0.00,0.000000,,2013-09-06 04:54:00,
2013-09-05 23:23:00,55.0,38.0,-100.00,South,188,3.0,5.0,53,0.00,,,0.00,0.000000,,2013-09-06 05:23:00,
2013-09-05 23:34:00,55.0,38.0,-100.00,South,188,3.0,5.0,53,0.00,,,0.00,0.000000,,2013-09-06 05:34:00,
2013-09-05 23:42:00,55.0,38.0,-100.00,South,188,3.0,5.0,53,0.00,,,0.00,0.000000,,2013-09-06 05:42:00,
2013-09-05 23:52:00,55.0,38.0,-100.00,South,188,3.0,5.0,53,0.00,,,0.00,0.000000,,2013-09-06 05:52:00,